Hao Airport


Codes: NTTO/HOI
Name: Hao Airport
City:
Country: French Polynesia
Elevation: 10 ft.
Wikipedia:

Photos at Hao Airport


   Photos courtesy of SpottingLog. You can add your own sightings and photos by signing up for a free trial today.



No photos found.

Weather at Hao Airport


Time (UTC)DescriptionTempratureWindCloud coverageVisibilityPressureHumidity
13-Jun-2024 03:00Light Rain25°C16 mph, E21%10000m1016hPa76%
13-Jun-2024 06:00Light Rain25°C18 mph, SE19%10000m1017hPa75%
13-Jun-2024 09:00Light Rain25°C18 mph, E8%10000m1017hPa77%
13-Jun-2024 12:00Light Rain26°C18 mph, E5%10000m1016hPa73%
13-Jun-2024 15:00Clear Sky26°C20 mph, E0%10000m1017hPa75%
13-Jun-2024 18:00Light Rain26°C20 mph, E1%10000m1018hPa77%
13-Jun-2024 21:00Light Rain26°C16 mph, E7%10000m1018hPa77%
14-Jun-2024 00:00Light Rain26°C16 mph, E9%10000m1016hPa78%
14-Jun-2024 03:00Light Rain26°C18 mph, E20%10000m1017hPa79%
14-Jun-2024 06:00Light Rain26°C18 mph, E15%10000m1018hPa79%
14-Jun-2024 09:00Light Rain25°C18 mph, E7%10000m1018hPa80%
14-Jun-2024 12:00Light Rain26°C18 mph, E6%10000m1016hPa79%
14-Jun-2024 15:00Light Rain26°C18 mph, E2%10000m1017hPa79%
14-Jun-2024 18:00Light Rain26°C16 mph, E2%10000m1019hPa78%
14-Jun-2024 21:00Light Rain26°C16 mph, E7%10000m1018hPa79%
15-Jun-2024 00:00Light Rain26°C16 mph, E7%10000m1016hPa79%
15-Jun-2024 03:00Light Rain26°C16 mph, E11%10000m1017hPa79%
15-Jun-2024 06:00Light Rain26°C16 mph, E12%10000m1019hPa80%
15-Jun-2024 09:00Light Rain26°C16 mph, E13%10000m1018hPa80%
15-Jun-2024 12:00Light Rain25°C16 mph, E10%10000m1017hPa81%
15-Jun-2024 15:00Light Rain25°C16 mph, E6%10000m1018hPa80%
15-Jun-2024 18:00Light Rain26°C16 mph, E11%10000m1019hPa79%
15-Jun-2024 21:00Few Clouds26°C16 mph, E11%10000m1018hPa74%
16-Jun-2024 00:00Clear Sky26°C13 mph, E6%10000m1016hPa77%
16-Jun-2024 03:00Light Rain26°C18 mph, E8%10000m1017hPa79%
16-Jun-2024 06:00Light Rain26°C16 mph, E8%10000m1018hPa79%
16-Jun-2024 09:00Light Rain26°C16 mph, E6%10000m1017hPa79%
16-Jun-2024 12:00Clear Sky26°C13 mph, E7%10000m1016hPa79%
16-Jun-2024 15:00Light Rain26°C16 mph, E1%10000m1017hPa78%
16-Jun-2024 18:00Clear Sky26°C16 mph, E3%10000m1018hPa78%
16-Jun-2024 21:00Light Rain26°C16 mph, E6%10000m1017hPa78%
17-Jun-2024 00:00Light Rain26°C13 mph, E6%10000m1014hPa76%
17-Jun-2024 03:00Light Rain26°C13 mph, E6%10000m1015hPa77%
17-Jun-2024 06:00Light Rain25°C13 mph, E6%10000m1016hPa78%
17-Jun-2024 09:00Light Rain25°C11 mph, E12%10000m1016hPa78%
17-Jun-2024 12:00Light Rain25°C9 mph, E15%10000m1015hPa79%
17-Jun-2024 15:00Light Rain25°C9 mph, E18%10000m1015hPa79%
17-Jun-2024 18:00Light Rain25°C11 mph, E13%10000m1016hPa79%
17-Jun-2024 21:00Light Rain25°C9 mph, E3%10000m1016hPa78%
18-Jun-2024 00:00Clear Sky25°C9 mph, E4%10000m1014hPa77%